Weather History for Ardmore, OK

Change the Weather History Date:

Sunday, August 4, 2013

  Actual Average Record
Temperature  
Mean Temperature 88 °F -  
Max Temperature 103 °F 93 °F 109 °F (2011)
Min Temperature 73 °F 71 °F 68 °F (2002)
Cooling Degree Days 22    
Growing Degree Days 38 (Base 50)    
Moisture  
Dew Point 69 °F    
Average Humidity 71    
Maximum Humidity 86    
Minimum Humidity 27    
Precipitation  
Precipitation 0.00 in - - ()
Sea Level Pressure  
Sea Level Pressure 30.01 in    
Wind  
Wind Speed 5 mph (SE)    
Max Wind Speed 7 mph    
Max Gust Speed -    
Visibility 10 miles    
Events      
Averages and records for this station are not official NWS values.
T = Trace of Precipitation, MM = Missing Value Source: NWS Daily Summary

Daily Weather History Graph

Daily Weather History Graph

Search for Another Location

Airport:

Trip Planner

Search our weather history database for the weather conditions in past years. The results will help you decide how hot, cold, wet, or windy it might be!

Date:

Astronomy

Aug. 04, 2013 Rise Set
Actual Time 6:41 AM CDT 8:26 PM CDT
Civil Twilight 6:13 AM CDT 8:53 PM CDT
Nautical Twilight 5:41 AM CDT 9:26 PM CDT
Astronomical Twilight 5:06 AM CDT 10:01 PM CDT
Moon 4:44 AM CDT (8/4) 6:50 PM CDT (8/4)
Length of Visible Light 14h 39m
Length of Day
13h 45m
Waning Crescent, 4% of the Moon is Illuminated
Aug 4
Waning Crescent
Aug 6
New
Aug 14
First Quarter
Aug 20
Full
Aug 28
Last Quarter

Hourly Weather History & Observations

Time (CDT) Temp. Heat Index Dew Point Humidity Pressure Visibility Wind Dir Wind Speed Gust Speed Precip Events Conditions
12:15 AM 81.3 °F 84.8 °F 70.0 °F 68% 30.02 in 10.0 mi ESE 6.9 mph - N/A   Clear
12:35 AM 81.0 °F 84.6 °F 70.5 °F 70% 30.02 in 10.0 mi ESE 5.8 mph - N/A   Clear
12:55 AM 80.6 °F 84.1 °F 70.3 °F 71% 30.02 in 10.0 mi ESE 5.8 mph - N/A   Clear
1:15 AM 80.1 °F 83.4 °F 70.5 °F 73% 30.01 in 10.0 mi ESE 6.9 mph - N/A   Clear
1:35 AM 79.7 °F - 70.7 °F 74% 30.01 in 10.0 mi ESE 4.6 mph - N/A   Clear
1:55 AM 79.2 °F - 70.5 °F 75% 30.00 in 10.0 mi ESE 5.8 mph - N/A   Clear
2:15 AM 79.2 °F - 70.7 °F 75% 30.00 in 10.0 mi SE 5.8 mph - N/A   Clear
2:35 AM 78.8 °F - 70.7 °F 76% 29.99 in 10.0 mi SE 5.8 mph - N/A   Clear
2:55 AM 78.4 °F - 70.2 °F 76% 29.98 in 10.0 mi SE 5.8 mph - N/A   Clear
3:15 AM 77.9 °F - 69.8 °F 76% 29.98 in 10.0 mi SE 3.5 mph - N/A   Clear
3:35 AM 76.8 °F - 70.3 °F 80% 29.99 in 10.0 mi Calm Calm - N/A   Clear
3:55 AM 75.6 °F - 69.3 °F 81% 30.00 in 7.0 mi Calm Calm - N/A   Clear
4:15 AM 74.7 °F - 68.7 °F 82% 30.01 in 7.0 mi Calm Calm - N/A   Clear
4:35 AM 74.3 °F - 69.6 °F 85% 30.02 in 7.0 mi East 3.5 mph - N/A   Clear
4:55 AM 74.3 °F - 70.0 °F 86% 30.02 in 7.0 mi East 3.5 mph - N/A   Clear
5:15 AM 74.5 °F - 70.2 °F 86% 30.02 in 10.0 mi East 5.8 mph - N/A   Clear
5:35 AM 75.2 °F - 69.8 °F 83% 30.02 in 10.0 mi SE 3.5 mph - N/A   Clear
5:55 AM 74.5 °F - 68.7 °F 82% 30.02 in 10.0 mi Calm Calm - N/A   Clear
6:15 AM 73.6 °F - 68.4 °F 84% 30.03 in 10.0 mi Calm Calm - N/A   Clear
6:35 AM 73.0 °F - 67.8 °F 84% 30.03 in 10.0 mi Calm Calm - N/A   Clear
7:55 AM 78.8 °F - 71.6 °F 78% 30.05 in 10.0 mi Calm Calm - N/A   Clear
8:55 AM 84.2 °F 88.4 °F 69.8 °F 62% 30.06 in 10.0 mi South 4.6 mph - N/A   Clear
9:45 AM 89.6 °F 93.4 °F 68.0 °F 49% 30.06 in 10.0 mi SSW 4.6 mph - N/A   Clear
10:55 AM 93.2 °F 97.7 °F 68.0 °F 44% 30.05 in 10.0 mi South 4.6 mph - N/A   Clear
11:55 AM 95.0 °F 99.5 °F 68.0 °F 41% 30.04 in 10.0 mi SSE 4.6 mph - N/A   Clear
2:54 PM 102.2 °F 104.2 °F 62.6 °F 27% 29.98 in 10.0 mi South 6.9 mph - N/A   Scattered Clouds
11:35 PM 81.5 °F 83.7 °F 66.4 °F 60% 29.98 in 10.0 mi SE 3.5 mph - N/A   Clear
11:55 PM 80.1 °F 82.1 °F 66.0 °F 62% 29.97 in 10.0 mi ESE 3.5 mph - N/A   Clear